Regional Weather Roundup
Issued by NWS Cleveland, OH

Home | Current Version | Previous Version | Graphics & Text | Print | Product List | Glossary On
Versions: 1 2 3 4 5 6 7 8 9 10 11 12 13 14 15 16 17 18 19 20 21 22 23 24 25 26 27 28 29 30 31 32 33 34 35 36 37 38 39 40 41 42 43 44 45 46 47 48 49 50
000
ASUS41 KCLE 292202
RWRCLE
OHIO REGIONAL WEATHER ROUNDUP
NATIONAL WEATHER SERVICE CLEVELAND, OH
600 PM EDT WED JUL 29 2015

NOTE: "FAIR" INDICATES FEW OR NO CLOUDS BELOW 12,000 FEET WITH NO
SIGNIFICANT WEATHER AND/OR OBSTRUCTIONS TO VISIBILITY.

OHZ001>008-015>018-024>027-034-035-043-044-292300-
   NORTHWEST OHIO

CITY           SKY/WX    TMP DP  RH WIND       PRES   REMARKS
DEFIANCE       MOSUNNY   90  75  61 W8        29.90S HX 100
FINDLAY        CLOUDY    80  75  84 SW8       29.92S
TOLEDO EXPRESS LGT RAIN  75  74  96 S3        29.91F FOG
TOLEDO EXEC    CLOUDY    78  72  81 SW7       29.91F
LIMA           CLOUDY    79  73  82 SW6       29.94S
$$

OHZ009>014-019>023-028>033-038-089-292300-
   NORTHEAST OHIO

CITY           SKY/WX    TMP DP  RH WIND       PRES   REMARKS
CLE-HOPKINS    MOSUNNY   89  66  46 SW9       29.92S HX  91
CLE-LAKEFRONT  MOSUNNY   85  68  56 NE6       29.89R HAZE
CUY CO. ARPT   PTSUNNY   91  68  46 NW12      29.92R HX  95
LORAIN-ELYRIA  PTSUNNY   87  68  52 W7        29.91S HX  90
ASHTABULA      SUNNY     87  63  44 N3        29.93S
AKRON-CANTON   PTSUNNY   89  67  47 SW9       29.94R HX  92
WOOSTER        MOSUNNY   86  71  60 SW6       29.94R HX  91
MANSFIELD      PTSUNNY   86  70  58 SW7       29.95R HX  90
YOUNGSTOWN     PTSUNNY   86  68  54 SW6       29.94R
$$

OHZ042-051>053-060>062-070>072-077>081-292300-
  SOUTHWEST OHIO

CITY           SKY/WX    TMP DP  RH WIND       PRES   REMARKS
CINC-COVINGTON PTSUNNY   84  76  76 S5        29.95S HX  93
CINC-LUNKEN    CLOUDY    79  76  90 S3        29.95S
HAMILTON       CLOUDY    82  76  81 VRB5      29.95S
DAYTON         CLOUDY    80  76  87 SE6       29.96F
WRIGHT-PAT AFB PTSUNNY   75  75 100 E7        29.95F
DAYTON GENERAL CLOUDY    78  73  84 E7        29.96R THUNDER
WILMINGTON     LGT RAIN  74  70  87 S3        29.97S
$$

OHZ036-037-039>041-045>050-054>059-063>069-073>076-082>088-292300-
  CENTRAL AND SOUTHEAST OHIO

CITY           SKY/WX    TMP DP  RH WIND       PRES   REMARKS
COLUMBUS       CLOUDY    89  71  55 SW12      29.92S HX  95
OSU AIRPORT    PTSUNNY   88  72  58 SW8       29.93R HX  94
BOLTON FIELD   SUNNY     86  75  70 SW5       29.94S HX  95
RICKENBACK AFB MOSUNNY   87  73  64 SW7       29.92F HX  94
NEWARK         SUNNY     89  70  53 SW8       29.93R HX  94
MARION         CLOUDY    81  74  79 SE3       29.93S
LANCASTER      MOSUNNY   87  71  58 SW8       29.94R HX  93
ZANESVILLE     SUNNY     89  70  53 SW7       29.93R HAZE    HX  94
NEW PHILLY     SUNNY     88  70  55 W5        29.94R HX  93
$$


USA.gov is the U.S. government's official web portal to all federal, state and local government web resources and services.